カタログに戻る

FENGYUN 1C DEB

LostSSO
NORAD 31316·DEBRIS·🇨🇳 China

打ち上げ May 10, 1999 から Taiyuan Satellite Launch Center

Loading…

次のパス (今後24時間)

TLE

古いSource: Space-Track

元期: Oct 25, 2022, 22:59 UTC

1 31316U 99025BPU 22298.95822317  .00002417  00000-0  12614-2 0  9999
2 31316  98.9114   2.4896 0116358 264.2663  94.5232 14.12017324800637

AllMySatでFENGYUN 1C DEBをリアルタイム追跡

Download on the App Store